Location: Unspecified
(50.1700°N, 6.8600°E)
Time: 20:55:57
(UTC+00:00)

CSL-04 Rocket - Pass Details

Date: 24 January 2019
Orbit: 806 x 860 km, 99.0° (Epoch: 16 February)

Event Time Altitude Azimuth Distance (km) Brightness Sun altitude
Rises 06:35:05 0° 16° (NNE) 3,423 6.8 -7.0°
Reaches altitude 10° 06:37:29 10° 19° (NNE) 2,476 6.1 -6.6°
Maximum altitude 06:42:59 73° 104° (ESE) 874 4.0 -5.8°
Drops below altitude 10° 06:48:21 10° 189° (S) 2,422 6.3 -5.0°
Sets 06:50:40 0° 192° (SSW) 3,343 7.0 -4.7°
